Back to catalog

KUIPER-00581

AliveCommunicationsLEO
NORAD 69273·PAYLOAD·🇺🇸 United States

Launched May 29, 2026 from Vandenberg Space Force Base

Loading…

Next Passes (next 24 hours)

TLE

FreshSource: CelesTrak SupGP

Epoch: Sep 14, 2026, 16:54 UTC

1 69273C 26118G   26257.70462963  .00006459  00000+0  84547-3 0  2575
2 69273  51.9026   7.3194 0001386 169.2816 319.3130 14.79927217    17

Track KUIPER-00581 in real time with AllMySat

Download on the App Store